Weather History for Bartlesville, OK

Change the Weather History Date:

Saturday, October 26, 2013

  Actual Average Record
Temperature  
Mean Temperature 54 °F -  
Max Temperature 66 °F 70 °F 93 °F (1950)
Min Temperature 42 °F 43 °F 24 °F (1957)
Degree Days  
Heating Degree Days 11    
Growing Degree Days 4 (Base 50)    
Moisture  
Dew Point 46 °F    
Average Humidity 78    
Maximum Humidity 97    
Minimum Humidity 60    
Precipitation  
Precipitation 0.00 in - - ()
Sea Level Pressure  
Sea Level Pressure 30.16 in    
Wind  
Wind Speed 2 mph (South)    
Max Wind Speed 7 mph    
Max Gust Speed -    
Visibility 10 miles    
Events      
Averages and records for this station are not official NWS values.
T = Trace of Precipitation, MM = Missing Value Source: NWS Daily Summary

Daily Weather History Graph

Daily Weather History Graph

Search for Another Location

Airport:

Trip Planner

Search our weather history database for the weather conditions in past years. The results will help you decide how hot, cold, wet, or windy it might be!

Date:

Astronomy

Oct. 26, 2013 Rise Set
Actual Time 7:42 AM CDT 6:33 PM CDT
Civil Twilight 7:15 AM CDT 6:59 PM CDT
Nautical Twilight 6:45 AM CDT 7:30 PM CDT
Astronomical Twilight 6:15 AM CDT 8:00 PM CDT
Moon No Moon Rise 1:57 PM CDT (10/26)
Length of Visible Light 11h 44m
Length of Day
10h 51m
Waning Gibbous, 53% of the Moon is Illuminated
Oct 26
Waning Gibbous
Oct 26
Last Quarter
Nov 3
New
Nov 9
First Quarter
Nov 17
Full

Hourly Weather History & Observations

Time (CDT) Temp. Windchill Dew Point Humidity Pressure Visibility Wind Dir Wind Speed Gust Speed Precip Events Conditions
12:53 AM 42.1 °F - 39.0 °F 89% 30.20 in 10.0 mi Calm Calm - N/A   Clear
1:53 AM 42.1 °F 40.2 °F 39.9 °F 92% 30.19 in 10.0 mi South 3.5 mph - N/A   Clear
2:53 AM 48.0 °F - 41.0 °F 77% 30.18 in 10.0 mi SSW 4.6 mph - N/A   Clear
3:53 AM 48.9 °F - 42.1 °F 77% 30.17 in 10.0 mi SSW 6.9 mph - N/A   Clear
4:53 AM 48.9 °F - 42.1 °F 77% 30.17 in 10.0 mi SSW 6.9 mph - N/A   Clear
5:53 AM 48.9 °F - 42.1 °F 77% 30.17 in 10.0 mi SSW 4.6 mph - N/A   Overcast
6:53 AM 48.0 °F - 42.1 °F 80% 30.16 in 10.0 mi South 3.5 mph - N/A   Scattered Clouds
7:53 AM 46.9 °F - 43.0 °F 86% 30.16 in 10.0 mi South 3.5 mph - N/A   Mostly Cloudy
8:53 AM 48.0 °F - 44.1 °F 86% 30.17 in 10.0 mi SSE 3.5 mph - N/A   Mostly Cloudy
9:53 AM 51.1 °F - 45.0 °F 80% 30.17 in 10.0 mi Calm Calm - N/A   Partly Cloudy
10:53 AM 59.0 °F - 46.9 °F 64% 30.17 in 10.0 mi SW 5.8 mph - N/A   Mostly Cloudy
11:53 AM 61.0 °F - 50.0 °F 67% 30.17 in 10.0 mi WSW 5.8 mph - N/A   Mostly Cloudy
12:53 PM 64.0 °F - 50.0 °F 60% 30.16 in 10.0 mi Calm Calm - N/A   Partly Cloudy
1:53 PM 63.0 °F - 51.1 °F 65% 30.14 in 10.0 mi Calm Calm - N/A   Scattered Clouds
2:53 PM 66.0 °F - 52.0 °F 60% 30.12 in 10.0 mi Calm Calm - N/A   Partly Cloudy
3:53 PM 63.0 °F - 51.1 °F 65% 30.11 in 10.0 mi Calm Calm - N/A   Overcast
4:53 PM 63.0 °F - 52.0 °F 67% 30.12 in 6.0 mi Calm Calm - N/A   Haze
5:53 PM 62.1 °F - 51.1 °F 67% 30.11 in 10.0 mi ENE 3.5 mph - N/A   Clear
6:53 PM 54.0 °F - 52.0 °F 93% 30.12 in 10.0 mi Calm Calm - N/A   Clear
7:53 PM 51.1 °F - 50.0 °F 96% 30.14 in 10.0 mi Calm Calm - N/A   Clear
8:53 PM 48.9 °F - 48.0 °F 97% 30.14 in 7.0 mi Calm Calm - N/A   Clear
9:53 PM 50.0 °F - 48.0 °F 93% 30.16 in 10.0 mi Calm Calm - N/A   Clear
10:53 PM 48.0 °F - 41.0 °F 77% 30.16 in 5.0 mi Calm Calm - N/A   Haze
11:53 PM 45.0 °F - 39.0 °F 80% 30.17 in 10.0 mi Calm Calm - N/A   Clear